This is the latest recevied weather packets stored in our database for station/object KK7KHO. If no packets are shown the sender has not sent any weather packets the latest 10 day(s).
| Time | Temp. | Humidity | Pressure | Rain* | Wind** | Luminosity | Snow |
|---|---|---|---|---|---|---|---|
| 1777389674 | 10.56° C | 87% | 1021.3 hPa | 0 mm | - | 169 W/m² | - |
| 1777389369 | 10.56° C | 86% | 1021.3 hPa | 0 mm | - | 143 W/m² | - |
| 1777389068 | 10.56° C | 86% | 1021.1 hPa | 0 mm | - | 116 W/m² | - |
| 1777388765 | 10.56° C | 86% | 1021.1 hPa | 0 mm | - | 98 W/m² | - |
| 1777388462 | 10.56° C | 87% | 1021.2 hPa | 0 mm | - | 84 W/m² | - |
| 1777388156 | 10.56° C | 87% | 1021.1 hPa | 0 mm | - | 83 W/m² | - |
| 1777387852 | 10.56° C | 87% | 1021.1 hPa | 0 mm | - | 88 W/m² | - |
| 1777387549 | 10° C | 87% | 1021.1 hPa | 0 mm | - | 87 W/m² | - |
| 1777387245 | 10° C | 87% | 1021 hPa | 0 mm | - | 83 W/m² | - |
| 1777386940 | 10° C | 88% | 1021 hPa | 0 mm | - | 75 W/m² | - |
| 1777386638 | 10° C | 88% | 1020.9 hPa | 0 mm | - | 66 W/m² | - |
| 1777386334 | 10° C | 87% | 1020.7 hPa | 0 mm | - | 62 W/m² | - |
| 1777386032 | 10° C | 87% | 1020.8 hPa | 0 mm | - | 61 W/m² | - |
| 1777385728 | 10° C | 86% | 1020.5 hPa | 0 mm | - | 62 W/m² | - |
| 1777385426 | 10° C | 86% | 1020.4 hPa | 0 mm | - | 57 W/m² | - |
| 1777385122 | 10° C | 86% | 1020.5 hPa | 0 mm | - | 50 W/m² | - |
| 1777384817 | 10° C | 86% | 1020.5 hPa | 0 mm | - | 39 W/m² | - |
| 1777384515 | 10° C | 86% | 1020.3 hPa | 0 mm | - | 30 W/m² | - |
| 1777384210 | 10° C | 86% | 1020.5 hPa | 0 mm | - | 21 W/m² | - |
| 1777383906 | 9.44° C | 86% | 1020.5 hPa | 0 mm | - | 17 W/m² | - |
| 1777383602 | 9.44° C | 86% | 1020.5 hPa | 0 mm | - | 13 W/m² | - |
| 1777383298 | 9.44° C | 86% | 1020.5 hPa | 0 mm | - | 10 W/m² | - |
| 1777382995 | 9.44° C | 87% | 1020.5 hPa | 0 mm | - | 9 W/m² | - |
| 1777382691 | 9.44° C | 87% | 1020.3 hPa | 0 mm | - | 6 W/m² | - |
| 1777382386 | 9.44° C | 86% | 1020.3 hPa | 0 mm | - | 6 W/m² | - |
* Rain latest hour (hover to see other rain measurements)
** Current wind speed in m/s (hover to see current wind gust speed)